Content
SEND FEEDBACK

Daily
Averages
Monthly
Summary
United Kingdom

LONDON, ENGLAND


Home > Europe > United Kingdom > England
Elevation: 203 feet     Latitude: 51 09N     Longitude: 000 11W

WEATHER
 
SELECT A DAY
Number of Records: 294,628;   Date Range: 7/1/96 - 9/20/14
 
SHARE

PRINT THIS DATA

[ ← Previous Day ]
WEATHER ALMANAC - OCTOBER 1, 2013
[ Next Day → ]
[ °C ]   °F
Weather ElementAverageHighLow
Temperature56.8 °F60.8 °F (12:20 pm)50 °F (2:50 am)
Dewpoint52 °F55.4 °F (11:20 am)48.2 °F (3:50 am)
Humidity84.4 %100 % (2:50 am)77 % (3:20 pm)
Barometer29.79 in29.83 in (8:20 pm)29.74 in (5:20 am)
Wind Speed7.9 mph12.7 mph (3:20 pm)
Weather ElementAverage
Visibility5.1 mi
Wind DirectionE (88.5 °)

Weather ElementTotal
Precipitation---
Heating Degree Days9.6 (Base 65)
Growing Degree Days5.4 (Base 50)
Averaged from 47 records on October 1, 2013
WEATHER CONDITIONS BREAKOUT
WIND DIRECTION BREAKOUT
WEATHER BY HOUR - OCTOBER 1, 2013
[ °C ]   °F
Local TimeTemperatureDewpointHumidityBarometerVisibilityWind DirectionWind SpeedGust SpeedPrecipitationEventsConditions
12:50 AM53.6 °F50.0 °F88 %29.77 in3.1 miEast (100°)4.6 mphHaze
1:20 AM51.8 °F50.0 °F94 %29.77 in2.8 miEast (90°)3.5 mphHaze
1:50 AM51.8 °F50.0 °F94 %29.77 in2.8 miEast (80°)4.6 mphHaze
2:20 AM51.8 °F50.0 °F94 %29.77 in2.8 miEast (80°)4.6 mphHaze
2:50 AM50.0 °F50.0 °F100 %29.77 in2.8 miEast (80°)4.6 mphHaze
3:20 AM51.8 °F50.0 °F94 %29.77 in3.1 miEast (90°)6.9 mphHaze
3:50 AM50.0 °F48.2 °F94 %29.77 in3.1 miEast (80°)6.9 mphHaze
4:20 AM51.8 °F50.0 °F94 %29.77 in3.1 miEast (80°)5.8 mphHaze
4:50 AM51.8 °F50.0 °F94 %29.77 in3.1 miEast (80°)6.9 mphHaze
5:20 AM51.8 °F50.0 °F94 %29.74 in3.7 miEast (80°)10.4 mphOvercast
5:50 AM53.6 °F50.0 °F88 %29.74 in4.3 miEast (80°)9.2 mphOvercast
6:20 AM53.6 °F50.0 °F88 %29.77 in4.3 miEast (90°)8.1 mphOvercast
6:50 AM53.6 °F50.0 °F88 %29.77 in4.3 miEast (90°)6.9 mphMostly Cloudy
7:20 AM53.6 °F50.0 °F88 %29.77 in5.0 miEast (100°)4.6 mphMostly Cloudy
7:50 AM53.6 °F50.0 °F88 %29.77 in5.0 miEast (90°)3.5 mphMostly Cloudy
8:20 AM53.6 °F50.0 °F88 %29.77 in5.0 miENE (60°)5.8 mphMostly Cloudy
8:50 AM53.6 °F51.8 °F94 %29.80 in5.0 miEast (80°)4.6 mphMostly Cloudy
9:20 AM55.4 °F51.8 °F88 %29.80 in3.7 miEast (80°)6.9 mphMostly Cloudy
9:50 AM55.4 °F51.8 °F88 %29.80 in4.3 miEast (80°)6.9 mphMostly Cloudy
10:20 AM57.2 °F53.6 °F88 %29.80 in5.6 miENE (70°)9.2 mphMostly Cloudy
10:50 AM57.2 °F53.6 °F88 %29.80 in5.6 miEast (80°)9.2 mphMostly Cloudy
11:20 AM59.0 °F55.4 °F88 %29.80 in5.0 miENE (70°)6.9 mphOvercast
11:50 AM59.0 °F55.4 °F88 %29.80 in5.0 miENE (70°)10.4 mphMostly Cloudy
12:20 PM60.8 °F55.4 °F82 %29.80 in5.0 miEast (90°)9.2 mphMostly Cloudy
12:50 PM60.8 °F55.4 °F82 %29.80 in5.6 miEast (100°)10.4 mphMostly Cloudy
1:20 PM60.8 °F55.4 °F82 %29.80 in5.6 miEast (100°)11.5 mphMostly Cloudy
1:50 PM60.8 °F55.4 °F82 %29.80 in5.6 miESE (110°)10.4 mphMostly Cloudy
2:20 PM60.8 °F55.4 °F82 %29.80 in5.6 miEast (100°)10.4 mphMostly Cloudy
2:50 PM60.8 °F55.4 °F82 %29.80 in6.2 miEast (100°)9.2 mphMostly Cloudy
3:20 PM60.8 °F53.6 °F77 %29.80 in6.2 miESE (110°)12.7 mphMostly Cloudy
3:50 PM60.8 °F53.6 °F77 %29.80 in6.2 miEast (100°)12.7 mphMostly Cloudy
4:20 PM60.8 °F53.6 °F77 %29.80 in6.2 miESE (120°)8.1 mphMostly Cloudy
4:50 PM60.8 °F53.6 °F77 %29.80 in6.2 miEast (80°)10.4 mphMostly Cloudy
5:20 PM59.0 °F51.8 °F77 %29.80 in6.2 miEast (90°)10.4 mphMostly Cloudy
5:50 PM59.0 °F51.8 °F77 %29.80 in6.2 miEast (90°)9.2 mphMostly Cloudy
6:20 PM59.0 °F51.8 °F77 %29.80 in6.2 miEast (90°)6.9 mphMostly Cloudy
6:50 PM59.0 °F51.8 °F77 %29.80 in6.2 miENE (70°)6.9 mphMostly Cloudy
7:20 PM59.0 °F51.8 °F77 %29.80 in6.2 miEast (80°)6.9 mphMostly Cloudy
7:50 PM59.0 °F51.8 °F77 %29.80 in6.2 miEast (80°)6.9 mphMostly Cloudy
8:20 PM59.0 °F51.8 °F77 %29.83 in6.2 miESE (110°)5.8 mphMostly Cloudy
8:50 PM59.0 °F51.8 °F77 %29.83 in6.2 miESE (110°)5.8 mphMostly Cloudy
9:20 PM59.0 °F51.8 °F77 %29.83 in6.2 miEast (90°)5.8 mphMostly Cloudy
9:50 PM59.0 °F51.8 °F77 %29.83 in6.2 miEast (90°)8.1 mphMostly Cloudy
10:20 PM59.0 °F51.8 °F77 %29.80 in6.2 miEast (90°)9.2 mphMostly Cloudy
10:50 PM59.0 °F51.8 °F77 %29.80 in6.2 miEast (90°)10.4 mphMostly Cloudy
11:20 PM59.0 °F51.8 °F77 %29.80 in6.2 miEast (100°)10.4 mphMostly Cloudy
11:50 PM59.0 °F51.8 °F77 %29.80 in6.2 miEast (90°)10.4 mphMostly Cloudy
Hourly data recorded from EGKK, located miles away from London, England







STORIES FROM OUR PARTNERS